Location: Barrio de Canyet
(41.4665°N, 2.2381°E)
Time: 08:53:57
(UTC+00:00)

USA 234 - Pass Details

Date: 09 April 2020
Orbit: 1102 x 1106 km, 123.0° (Epoch: 14 May)

Event Time Altitude Azimuth Distance (km) Brightness Sun altitude
Rises 21:36:18 0° 46° (NE) 3,925 6.2 -31.5°
Reaches altitude 10° 21:38:48 10° 43° (NE) 2,965 5.6 -31.8°
Maximum altitude 21:45:15 65° 324° (NW) 1,200 3.5 -32.6°
Drops below altitude 10° 21:51:42 10° 244° (WSW) 2,957 5.6 -33.3°
Sets 21:54:12 0° 241° (WSW) 3,913 6.2 -33.6°
